Sparrevohn, AK

8:11 AM AKDT on July 27, 2017 (GMT -0800)
Sparrevohn LRRS

Weather History for PASV - March, 2013

Change the Weather History Date:

Saturday, March 16, 2013

  Actual Average Record
Temperature  
Mean Temperature 20 °F -  
Max Temperature 23 °F 23 °F 42 °F (1998)
Min Temperature 15 °F 9 °F -23 °F (2009)
Degree Days  
Heating Degree Days 46    
Moisture  
Dew Point 16 °F    
Average Humidity 85    
Maximum Humidity 98    
Minimum Humidity 68    
Precipitation  
Precipitation 0.01 in - - ()
Sea Level Pressure  
Sea Level Pressure 30.05 in    
Wind  
Wind Speed 3 mph (WSW)    
Max Wind Speed 6 mph    
Max Gust Speed -    
Visibility 7 miles    
Events Rain , Snow    
Averages and records for this station are not official NWS values.
T = Trace of Precipitation, MM = Missing Value Source: NWS Daily Summary

Daily Weather History Graph

Daily Weather History Graph

Search for Another Location

Airport or City:

Trip Planner

Search our weather history database for the weather conditions in past years. The results will help you decide how hot, cold, wet, or windy it might be!

Date:

Astronomy

Mar. 16, 2013 Rise Set
Actual Time 8:34 AM AKDT 8:28 PM AKDT
Civil Twilight 7:51 AM AKDT 9:11 PM AKDT
Nautical Twilight 7:00 AM AKDT 10:02 PM AKDT
Astronomical Twilight 6:05 AM AKDT 10:58 PM AKDT
Moon 9:44 AM AKDT (3/16) 2:15 AM AKDT (3/16)
Length of Visible Light 13h 19m
Length of Day
11h 53m
Waxing Crescent, 24% of the Moon is Illuminated
Mar 16
Waxing Crescent
Mar 19
First Quarter
Mar 27
Full
Apr 2
Last Quarter
Apr 10
New

Hourly Weather History & Observations

Time (AKDT) Temp. Windchill Dew Point Humidity Pressure Visibility Wind Dir Wind Speed Gust Speed Precip Events Conditions
12:55 AM 16.3 °F - 12.4 °F 84% 29.85 in 10.0 mi WSW 2.3 mph - N/A   Mostly Cloudy
1:55 AM 16.3 °F - 13.3 °F 88% 29.87 in 10.0 mi NE 1.2 mph - N/A   Mostly Cloudy
2:55 AM 17.1 °F - 13.6 °F 86% 29.86 in 10.0 mi Variable 1.2 mph - N/A   Mostly Cloudy
3:55 AM 16.9 °F - 13.8 °F 88% 29.88 in 10.0 mi NE 2.3 mph - N/A Snow Light Snow
4:28 AM 17.6 °F - 14.0 °F 86% 29.87 in 10.0 mi Variable 1.2 mph - N/A   Overcast
4:55 AM 18.0 °F - 14.5 °F 86% 29.87 in 10.0 mi Variable 2.3 mph - N/A   Mostly Cloudy
5:55 AM 21.7 °F - 13.6 °F 71% 29.88 in 10.0 mi Variable 1.2 mph - N/A   Overcast
6:55 AM 21.7 °F - 13.1 °F 69% 29.90 in 10.0 mi Variable 2.3 mph - N/A   Mostly Cloudy
7:55 AM 21.0 °F 16.2 °F 12.9 °F 71% 29.92 in 10.0 mi SW 3.5 mph - N/A   Mostly Cloudy
8:55 AM 17.6 °F - 13.1 °F 83% 29.96 in 10.0 mi Variable 2.3 mph - N/A   Mostly Cloudy
9:55 AM 20.1 °F - 12.0 °F 71% 29.97 in 10.0 mi Variable 2.3 mph - N/A   Overcast
10:43 AM 21.2 °F 14.9 °F 12.2 °F 68% 29.99 in 10.0 mi Variable 4.6 mph - N/A Snow Light Snow
10:55 AM 20.5 °F 15.6 °F 13.6 °F 75% 30.00 in 10.0 mi South 3.5 mph - N/A Snow Light Snow Showers
11:13 AM 19.4 °F 14.3 °F 14.0 °F 80% 30.00 in 2.5 mi Variable 3.5 mph - N/A Snow Light Snow Showers
11:28 AM 17.6 °F 10.7 °F 15.8 °F 93% 30.01 in 1.5 mi WSW 4.6 mph - N/A Snow Light Snow Showers
11:55 AM 18.1 °F 10.0 °F 15.6 °F 90% 30.03 in 2.0 mi WSW 5.8 mph - N/A Snow Light Snow
12:13 PM 17.6 °F 12.3 °F 15.8 °F 93% 30.03 in 1.5 mi WNW 3.5 mph - N/A Snow Light Snow
12:55 PM 18.7 °F - 16.3 °F 91% 30.04 in 1.5 mi Variable 1.2 mph - N/A Snow Light Snow
1:13 PM 19.4 °F - 15.8 °F 86% 30.05 in 4.0 mi Variable 1.2 mph - N/A Snow Light Snow
1:28 PM 19.4 °F - 17.6 °F 93% 30.06 in 1.8 mi SSE 1.2 mph - N/A Snow Light Snow
1:43 PM 19.4 °F - 17.6 °F 93% 30.06 in 4.0 mi Variable 1.2 mph - N/A Snow Light Snow
1:55 PM 20.3 °F - 17.8 °F 90% 30.06 in 10.0 mi NE 1.2 mph - 0.00 in Snow Light Snow
1:58 PM 21.2 °F - 17.6 °F 86% 30.06 in 10.0 mi Variable 1.2 mph - N/A Rain , Snow Light Freezing Rain
2:28 PM 21.2 °F 14.9 °F 17.6 °F 86% 30.06 in 9.0 mi Variable 4.6 mph - N/A Snow Light Snow
2:43 PM 23.0 °F 18.4 °F 17.6 °F 80% 30.07 in 2.0 mi Variable 3.5 mph - N/A Snow Light Snow
2:55 PM 22.1 °F 15.9 °F 17.8 °F 83% 30.07 in 10.0 mi WSW 4.6 mph - N/A Snow Light Snow Showers
3:43 PM 23.0 °F 15.8 °F 19.4 °F 86% 30.08 in 1.0 mi WSW 5.8 mph - N/A Snow Light Snow Showers
3:55 PM 22.8 °F 16.7 °F 18.9 °F 85% 30.09 in 1.5 mi WSW 4.6 mph - N/A Snow Light Snow
4:28 PM 23.0 °F 17.0 °F 19.4 °F 86% 30.09 in 4.0 mi Variable 4.6 mph - N/A Snow Light Snow
4:55 PM 23.2 °F 16.0 °F 17.8 °F 80% 30.09 in 6.0 mi SSW 5.8 mph - N/A Snow Light Snow
5:13 PM 23.0 °F 17.0 °F 17.6 °F 80% 30.10 in 2.0 mi WSW 4.6 mph - N/A Snow Light Snow
5:28 PM 23.0 °F 18.4 °F 17.6 °F 80% 30.11 in 3.0 mi SW 3.5 mph - N/A Snow Light Snow
5:43 PM 23.0 °F - 19.4 °F 86% 30.11 in 2.0 mi Variable 2.3 mph - N/A Snow Light Snow
5:55 PM 22.1 °F - 18.1 °F 85% 30.11 in 6.0 mi Variable 2.3 mph - N/A Snow Light Snow
6:28 PM 23.0 °F - 17.6 °F 80% 30.12 in 10.0 mi Variable 1.2 mph - N/A Snow Light Snow
6:43 PM 21.2 °F - 17.6 °F 86% 30.12 in 2.0 mi NNW 2.3 mph - N/A Snow Light Snow
6:55 PM 21.7 °F - 18.5 °F 87% 30.12 in 2.5 mi Variable 1.2 mph - N/A Snow Light Snow
7:13 PM 21.2 °F - 19.4 °F 93% 30.13 in 8.0 mi NNE 2.3 mph - N/A Snow Light Snow
7:55 PM 21.4 °F - 18.1 °F 87% 30.14 in 10.0 mi Variable 1.2 mph - N/A Snow Light Snow Showers
7:58 PM 21.2 °F - 17.6 °F 86% 30.15 in 10.0 mi Variable 2.3 mph - N/A Snow Light Snow Showers
8:55 PM 18.9 °F 13.7 °F 16.2 °F 89% 30.18 in 4.0 mi WNW 3.5 mph - N/A Snow Light Snow Showers
9:13 PM 17.6 °F - 15.8 °F 93% 30.19 in 10.0 mi NE 1.2 mph - N/A Snow Light Snow
9:28 PM 19.4 °F - 15.8 °F 86% 30.19 in 10.0 mi NNW 1.2 mph - N/A   Partly Cloudy
9:55 PM 17.6 °F - 15.8 °F 93% 30.20 in 10.0 mi Variable 1.2 mph - N/A   Clear
10:55 PM 16.0 °F 10.4 °F 15.4 °F 98% 30.22 in 10.0 mi SSW 3.5 mph - N/A   Clear
11:55 PM 15.4 °F - 14.7 °F 97% 30.24 in 10.0 mi Variable 2.3 mph - N/A   Clear